ONEWEB-0414 (50491 NORAD) Tracking and Keplerian Element Data

This shows tracking and keplerian element data for the satellite.

Feedback or suggestion? Click here.




ElementValue
Catalog50491
NameONEWEB-0414
Epoch Orbit131
Epoch Day140.58334491
Epoch Year2022
RAAN305.2588
Inclination87.2197
Eccentricity0.0005917
Argument of Perigee87.3986
Mean Anonmoly274.9002
Mean Motion14.92492822
Decay Rate-0.00053524
L11 50491U 21132Y 22140.58334491 -.00053524 00000+0 -52659-2 0 9993
L22 50491 87.2197 305.2588 0005917 87.3986 274.9002 14.92492822 1311

Live tracking and technical data element details for ONEWEB-0414 (NORAD 50491). ONEWEB-0414 can be tracked NOW for your location showing map with azimuth and elevation plus other details from your city location.

Track the satellite on the map from your city or location and see movement details for azimuth, elevation, latitude, longitude, range, height, and movement on the map or in text.







IsCatalogInMostPopularTable: catalog: 50491, numindb: 40
Update: records affected: 1



GetName: 50491 ONEWEB-0414

Hit Count: updated at: Sun, 22 May 2022 04:05:48 GMT